Reamstown, PA (17567)

4:25 AM EST on February 12, 2016 (GMT -0500)
Martin Ave | | Change Station
CLOSE
Current Station
Personal Weather Station
Location: Ephrata, PA
Elevation: 434 ft
Nearby Weather Stations

Elev 434 ft 40.19 °N, 76.19 °W | Updated 24 seconds ago

Clear
Clear
7.3 °F
Feels Like 7 °F
N
0.0
Wind Variable Wind from WSW
Gusts 0.0 mph

Today
High -- | Low -- °F
--% Chance of Precip.
Yesterday
High -- | Low -- °F
Precip. -- in
Pressure 30.29 in
Visibility 10.0 miles
Clouds Clear
Windchill 7 °F
Dew Point 1 °F
Humidity 74%
Rainfall 0.00 in
Snow Depth Not available.
7:02 AM 5:35 PM
Waxing Crescent, 19% visible
METAR KLNS 120853Z AUTO 27006KT 10SM CLR M14/M18 A3027 RMK AO2 SLP257 T11391183 58001 TSNO
Pressure 30.29 in
Visibility 10.0 miles
Clouds Clear
Windchill 7 °F
Dew Point 1 °F
Humidity 74%
Rainfall 0.00 in
Snow Depth Not available.
7:02 AM 5:35 PM
Waxing Crescent, 19% visible
METAR KLNS 120853Z AUTO 27006KT 10SM CLR M14/M18 A3027 RMK AO2 SLP257 T11391183 58001 TSNO

10-Day Weather Forecast

Almanac

Astronomy

Feb. 12, 2016 Rise Set
Actual Time
Civil Twilight
Nautical Twilight
Astronomical Twilight
Moon
Length of Visible Light
Length of Day
Tomorrow will be .
, % of the Moon is Illuminated

Today's Extremes

State Highs State Lows

Community

WunderPhotos

Upload Photos

1,892,286 photos uploaded!

WunderBlog® & News

Nearby

Air Quality

  Air Quality AQ Index Pollutant
Not available.

Snow Depth

Station Depth Elevation

Earthquake Activity

City Distance Mag. Time & Date
Minimum magnitude displayed is 2.5.

Coastal Water Temperatures

Place Temperature

Stations

Nearby Weather Stations

Station Location Temp. Windchill Dew Point Humidity Wind Precip. Elev Updated Type
                   

Watches & Warnings

There are currently no watches in effect.